Station CECC1 - 9419750 - Crescent City, CA Image indicating link to RSS feed of recent meteorological observations for station CECC1


Conditions at CECC1 as of
(4:00 am PDT)
1100 GMT on 04/21/2024:
     

Click on the graph icon in the table below to see a time series plot of the last five days of that observation.

5-day plot - Wind Direction Wind Direction (WDIR): N ( 10 deg true )
5-day plot - Wind Speed Wind Speed (WSPD): 2.9 kts
5-day plot - Wind Gust Wind Gust (GST): 2.9 kts
5-day plot - Atmospheric Pressure Atmospheric Pressure (PRES):30.27 in
5-day plot - Air Temperature Air Temperature (ATMP): 43.7 °F
5-day plot - Water Temperature Water Temperature (WTMP): 52.9 °F
5-day plot - Wind Chill Wind Chill (CHILL): 42.3 °F
5-day plot - Wind Speed at 10 Meters Wind Speed at 10 meters (WSPD10M): 3.9 kts
5-day plot - Wind Speed at 20 Meters Wind Speed at 20 meters (WSPD20M): 3.9 kts
5-day plot -  Wind Speed, Wind Gust and Atmospheric Pressure Combined plot of Wind Speed, Gust, and Air Pressure
NOS Water Level Observation Network Water Level
Previous observations
TIME
(PDT)
5-day plot - Wind Direction
WDIR
 
5-day plot - Wind Speed
WSPD
kts
5-day plot - Wind Gust
GST
kts
5-day plot - Wave Height
WVHT
ft
5-day plot - Dominant Wave Period
DPD
sec
5-day plot - Average Wave Period
APD
sec
5-day plot - Mean Wave Direction
MWD
 
5-day plot - Atmospheric Pressure
PRES
in
5-day plot - Pressure Tendency
PTDY
in
5-day plot - Air Temperature
ATMP
°F
5-day plot - Water Temperature
WTMP
°F
5-day plot - Dew Point
DEWP
°F
5-day plot - Salinity
SAL
psu
5-day plot - Visibility
VIS
nmi
5-day plot - Tide (above MLLW)
TIDE
ft
2024-04-21 03:54 amNNE 2.9 4.1----30.27- 43.5 52.7----
2024-04-21 03:48 amNNE 2.9 2.9----30.27- 43.3 52.9----
2024-04-21 03:42 amNNE 2.9 2.9----30.27- 43.7 53.1----
2024-04-21 03:36 am N 2.9 2.9----30.27- 44.1 52.9----
2024-04-21 03:30 amNNE 1.9 1.9----30.27-- 52.9----
2024-04-21 03:24 amNNE 1.9 2.9----30.27-- 52.9----
2024-04-21 03:18 amNNE 1.9 2.9----30.27- 44.6 52.9----
2024-04-21 03:12 am N 1.9 2.9----30.27- 44.4 52.9----
2024-04-21 03:06 am N 1.9 2.9----30.27- 44.4 52.9----
2024-04-21 03:00 amNNE 1.9 2.9----30.27-0.02 44.4 52.7----
2024-04-21 02:54 am N 2.9 2.9----30.27- 44.6 52.9----
2024-04-21 02:48 am N 2.9 4.1----30.27- 44.4 52.7----
2024-04-21 02:42 am N 2.9 4.1----30.27- 44.4 52.7----
2024-04-21 02:36 am N 1.9 4.1----30.27- 45.3 52.7----
2024-04-21 02:30 amNNE 2.9 4.1----30.27- 45.1 52.7----
2024-04-21 02:24 amNNE 2.9 4.1----30.27- 45.1 52.7----
2024-04-21 02:18 amNNE 2.9 4.1----30.27- 45.1 52.5----
2024-04-21 02:12 am N 2.9 5.1----30.27- 45.5 52.5----
2024-04-21 02:06 am N 4.1 5.1----30.27- 45.7 52.3----
2024-04-21 02:00 am N 4.1 5.1----30.27+0.00 46.0 52.5----
2024-04-21 01:54 am N 2.9 4.1----30.27- 45.9 52.5----
2024-04-21 01:48 amNNE 4.1 5.1----30.27- 46.0 52.3----
2024-04-21 01:42 am N 2.9 4.1----30.28- 45.9 52.3----
2024-04-21 01:36 am N 2.9 2.9----30.28- 46.2 52.2----
2024-04-21 01:30 am N 2.9 2.9----30.28- 46.6 52.5----
2024-04-21 01:24 amNNE 2.9 2.9----30.28- 46.4 52.3----
2024-04-21 01:18 am N 1.9 2.9----30.28-- 51.6----
2024-04-21 01:12 amNNE 1.9 2.9----30.28-- 51.3----
2024-04-21 01:06 am NE 2.9 4.1----30.28-- 51.6----
2024-04-21 01:00 am NE 2.9 2.9------ 46.4 52.3----
2024-04-21 12:54 amNNE 2.9 2.9------ 46.4 52.0----
2024-04-21 12:48 amNNE 1.9 2.9----30.29-- 51.8----
2024-04-21 12:42 amNNE 2.9 2.9----30.29- 46.9 52.0----
2024-04-21 12:36 am N 1.9 2.9----30.29- 47.3 51.3----
2024-04-21 12:30 amNNE 1.9 2.9----30.29- 47.1 50.4----
2024-04-21 12:24 amNNE 1.9 2.9----30.29- 47.5 50.9----
2024-04-21 12:18 amNNE 1.9 2.9----30.29- 47.5 51.1----
2024-04-21 12:12 amNNE 2.9 4.1----30.29- 47.8 50.5----
2024-04-21 12:06 am N 2.9 4.1----30.29- 48.6 50.0----
2024-04-21 12:00 amNNW 4.1 4.1----30.28+0.02 48.2 50.0----
2024-04-20 11:54 pmNNW 2.9 4.1----30.28- 48.4 50.4----
2024-04-20 11:48 pm N 2.9 4.1----30.28- 48.4 50.0----
2024-04-20 11:42 pmNNE 1.9 4.1----30.28- 48.6 49.8----
2024-04-20 11:36 pmNNE 2.9 4.1----30.28- 48.7 50.0----
2024-04-20 11:30 pmNNE 4.1 5.1----30.28- 48.9 50.0----
2024-04-20 11:24 pm N 2.9 2.9----30.28- 49.3 50.2----
2024-04-20 11:18 pm N 1.9 2.9----30.28- 49.6 50.2----
2024-04-20 11:12 pm N 1.9 4.1----30.27- 49.8 50.2----
2024-04-20 11:06 pm N 4.1 5.1----30.27- 50.2 50.4----
2024-04-20 11:00 pm N 4.1 5.1----30.27+0.02 50.2 50.4----
2024-04-20 10:54 pmNNW 5.1 5.1----30.27- 50.4 50.5----
2024-04-20 10:48 pm N 4.1 6.0----30.27-- 50.7----
2024-04-20 10:42 pm N 4.1 5.1----30.27- 50.4 50.5----
2024-04-20 10:36 pm N 4.1 5.1----30.27- 50.4 50.9----
2024-04-20 10:30 pm N 4.1 6.0----30.27- 50.5 51.1----
2024-04-20 10:24 pm N 6.0 7.0----30.27- 50.7 51.4----
2024-04-20 10:18 pm N 5.1 6.0----30.27-- 51.6----
2024-04-20 10:12 pm N 6.0 9.9----30.27- 50.9 51.8----
2024-04-20 10:06 pm N 6.0 9.9----30.27- 50.9 51.6----
2024-04-20 10:00 pm N 7.0 12.0----30.27+0.03 51.3 51.8----
2024-04-20 09:54 pmNNW 8.9 13.0----30.27- 51.3 52.3----
2024-04-20 09:48 pm N 8.0 13.0----30.27- 51.3 52.9----
2024-04-20 09:42 pm N 8.0 12.0----30.27- 51.6 53.4----
2024-04-20 09:36 pmNNW 8.0 12.0----30.27- 51.6 54.0----
2024-04-20 09:30 pm N 8.9 12.0----30.27- 51.8 54.5----
2024-04-20 09:24 pm N 9.9 14.0----30.27- 51.6 54.9----
2024-04-20 09:18 pmNNW 8.0 14.0----30.27- 51.6 55.6----
2024-04-20 09:12 pm N 11.1 15.0----30.27- 51.4 55.6----
2024-04-20 09:06 pmNNW 8.0 12.0----30.27- 51.6 55.8----
2024-04-20 09:00 pm N 7.0 11.1----30.26+0.03 51.6 55.6----
2024-04-20 08:54 pm N 7.0 12.0----30.26- 51.8 55.8----
2024-04-20 08:48 pm N 6.0 12.0----30.26- 52.0 55.8----
2024-04-20 08:42 pm N 7.0 12.0----30.26- 52.2 55.8----
2024-04-20 08:36 pm N 8.0 11.1----30.26- 52.2 55.8----
2024-04-20 08:30 pm N 8.9 13.0----30.25- 52.2 55.8----
2024-04-20 08:24 pm N 8.9 13.0----30.25- 52.2 55.9----
2024-04-20 08:18 pm N 8.0 12.0----30.25- 52.3 55.9----
2024-04-20 08:12 pm N 8.9 13.0----30.25- 52.5 55.8----
2024-04-20 08:06 pm N 9.9 14.0----30.25- 52.5 55.8----
2024-04-20 08:00 pm N 8.0 11.1----30.25+0.04 52.5 55.8----
2024-04-20 07:54 pm N 8.9 14.0----30.25- 52.5 55.8----
2024-04-20 07:48 pm N 7.0 11.1----30.25- 52.3 55.8----
2024-04-20 07:42 pm N 8.0 12.0----30.25- 52.2 55.9----
2024-04-20 07:36 pm N 7.0 9.9----30.25- 52.2 55.8----
2024-04-20 07:30 pm N 8.0 9.9----30.25- 52.0 55.8----
2024-04-20 07:24 pm N 8.0 9.9----30.25- 52.0 55.8----
2024-04-20 07:18 pm N 8.0 11.1----30.25- 51.8 55.8----
2024-04-20 07:12 pm N 8.0 12.0----30.25- 52.0 55.8----
2024-04-20 07:06 pm N 9.9 15.0----30.24- 52.0 55.8----
2024-04-20 07:00 pmNNW 9.9 14.0----30.24+0.04 52.0 55.8----
2024-04-20 06:54 pm N 7.0 12.0----30.24- 52.2 55.8----
2024-04-20 06:48 pm-------30.24-------
2024-04-20 06:42 pm N 12.0 15.0----30.24- 52.0 55.8----
2024-04-20 06:36 pm N 8.9 13.0----30.24- 52.5 55.8----
2024-04-20 06:30 pmNNW 11.1 14.0----30.24- 52.9 55.8----
2024-04-20 06:24 pm N 7.0 12.0----30.24- 53.2 55.8----
2024-04-20 06:18 pm-------30.24-- 55.8----
2024-04-20 06:12 pm N 8.0 12.0----30.24- 53.1 55.8----
2024-04-20 06:06 pm N 12.0 15.9----30.24- 53.1 55.6----
2024-04-20 06:00 pmNNW 11.1 14.0----30.23+0.03 53.2 55.6----
2024-04-20 05:54 pm N 11.1 15.0----30.23- 53.4 55.6----
2024-04-20 05:48 pmNNW 12.0 15.9----30.22-- 55.6----
2024-04-20 05:42 pmNNW 9.9 15.0----30.22- 53.6 55.6----
2024-04-20 05:36 pmNNW 11.1 14.0----30.22- 53.6 55.6----
2024-04-20 05:30 pmNNW 11.1 15.0----30.22- 54.0 55.6----
2024-04-20 05:24 pmNNW 11.1 13.0----30.22- 55.0 55.6----
2024-04-20 05:18 pmNNW 8.0 12.0------ 55.8 55.4----
2024-04-20 05:12 pm NW 11.1 14.0------ 55.9 55.4----
2024-04-20 05:06 pmWNW 12.0 22.0------ 55.8 55.4----
2024-04-20 05:00 pm NW 6.0 8.0----30.21+0.01 58.3 55.4----
2024-04-20 04:54 pm N 4.1 7.0----30.21- 58.1 55.4----
2024-04-20 04:48 pm N 5.1 7.0----30.21-- 55.4----
2024-04-20 04:42 pmNNW 5.1 6.0----30.21-- 55.4----
2024-04-20 04:36 pm N 5.1 7.0----30.21-- 55.4----
2024-04-20 04:30 pm N 4.1 7.0----30.21- 57.7 55.4----
2024-04-20 04:24 pmNNW 4.1 6.0----30.21- 57.7 55.4----
2024-04-20 04:18 pmNNW 4.1 6.0----30.21-- 55.4----
2024-04-20 04:12 pmNNW 4.1 6.0----30.21-- 55.4----
2024-04-20 04:06 pm N 2.9 5.1----30.21-- 55.4----
2024-04-20 04:00 pm N 4.1 6.0----30.20+0.02 57.0 55.2----
2024-04-20 03:54 pmNNW 2.9 4.1----30.20- 57.0 55.2----
2024-04-20 03:48 pm N 4.1 5.1----30.20- 56.5 55.2----
2024-04-20 03:42 pmNNW 2.9 5.1----30.20- 56.1 55.2----
2024-04-20 03:36 pm N 4.1 6.0----30.20- 55.8 55.2----
2024-04-20 03:30 pmNNE 2.9 5.1----30.20- 55.2 55.2----
2024-04-20 03:24 pm N 2.9 5.1----30.20- 54.5 55.2----
2024-04-20 03:18 pmNNW 1.9 1.9----30.20- 53.6 55.2----
2024-04-20 03:12 pmWSW 1.9 2.9----30.21- 53.2 55.2----
2024-04-20 03:06 pmWNW 1.9 2.9----30.21- 53.1 55.2----
2024-04-20 03:00 pm-------30.21+0.04 52.9 55.2----
2024-04-20 02:54 pm-------30.21- 53.1 55.2----
2024-04-20 02:48 pmSSW 4.1 5.1----30.21- 53.2 55.2----
2024-04-20 02:42 pmWSW 2.9 2.9----30.21- 52.9 55.2----
2024-04-20 02:36 pmWSW 1.9 4.1----30.21- 53.1 55.2----
2024-04-20 02:30 pmSSW 4.1 6.0----30.21- 52.9 55.2----
2024-04-20 02:24 pmWSW 2.9 5.1----30.20- 53.1 55.0----
2024-04-20 02:18 pm W 2.9 4.1----30.20- 52.9 55.0----
2024-04-20 02:12 pm SW 1.9 4.1----30.20- 53.2 55.0----
2024-04-20 02:06 pmSSW 2.9 5.1----30.20- 53.4 55.0----
2024-04-20 02:00 pmSSW 2.9 5.1----30.20+0.05 53.4 55.0----
2024-04-20 01:54 pmSSW 2.9 4.1----30.20- 53.4 55.0----
2024-04-20 01:48 pm SW 2.9 4.1----30.19-- 55.0----
2024-04-20 01:42 pmSSW 1.9 4.1----30.19-- 55.0----
2024-04-20 01:36 pmSSW 1.9 4.1----30.19-- 55.0----
2024-04-20 01:30 pm SW 4.1 5.1----30.19- 53.4 55.0----
2024-04-20 01:24 pm SW 4.1 5.1----30.19- 53.2 55.0----
2024-04-20 01:18 pm SW 5.1 7.0------ 53.4 55.0----
2024-04-20 01:12 pm SW 5.1 7.0------ 53.4 55.0----
2024-04-20 01:06 pmSSW 4.1 8.0------ 53.8 55.0----
2024-04-20 01:00 pm-------30.18+0.07 53.4 55.0----
2024-04-20 12:54 pm-------30.18- 53.2 55.0----
2024-04-20 12:48 pmSSW 7.0 8.9----30.18- 53.2 55.0----
2024-04-20 12:42 pmSSW 5.1 8.0----30.17- 53.4 55.0----
2024-04-20 12:36 pm S 7.0 8.0----30.17- 53.1 55.0----
2024-04-20 12:30 pm S 6.0 8.0----30.17- 53.4 54.9----
2024-04-20 12:24 pmSSW 6.0 8.9----30.17- 53.4 55.0----
2024-04-20 12:18 pmSSW 6.0 8.9----30.17- 53.6 55.0----
2024-04-20 12:12 pmSSW 7.0 11.1----30.17- 53.6 54.9----
2024-04-20 12:06 pmSSW 9.9 11.1----30.17- 53.4 55.0----
2024-04-20 12:00 pmSSW 8.0 9.9----30.16+0.08------
2024-04-20 11:54 amSSW 8.0 12.0----30.16-------
2024-04-20 11:48 am S 7.0 11.1----30.16-- 55.0----
2024-04-20 11:42 am S 9.9 12.0----30.15- 53.2 54.9----
2024-04-20 11:36 am S 9.9 12.0----30.15- 53.2 54.9----
2024-04-20 11:30 am S 8.9 11.1------ 52.9 54.9----
2024-04-20 11:24 amSSE 9.9 11.1------ 52.3 54.9----
2024-04-20 11:18 am S 8.0 9.9----30.15- 52.7 54.9----
2024-04-20 11:12 am S 8.0 9.9----30.15- 52.3 54.9----
2024-04-20 11:06 am S 6.0 9.9----30.15- 52.7 54.9----
2024-04-20 11:00 am S 5.1 8.0----30.15+0.09 52.5 55.0----
2024-04-20 10:54 am S 8.0 9.9----30.14- 52.3 55.0----
2024-04-20 10:48 am S 8.0 11.1----30.14- 52.2 55.0----
2024-04-20 10:42 am S 8.0 11.1----30.13- 52.2 55.0----
2024-04-20 10:36 am S 8.0 8.9----30.13- 52.0 55.0----
2024-04-20 10:30 am S 7.0 8.9----30.13- 51.6 55.0----
2024-04-20 10:24 am S 8.0 8.0----30.12- 51.6 55.0----
2024-04-20 10:18 am S 5.1 8.0----30.12-- 55.0----
2024-04-20 10:12 amSSW 5.1 8.0----30.12- 52.3 55.0----
2024-04-20 10:06 amSSW 5.1 8.0----30.12- 51.8 55.0----
2024-04-20 10:00 am S 6.0 8.0----30.11+0.06 51.8 55.0----
2024-04-20 09:54 am S 6.0 8.0----30.11- 51.6 55.0----
2024-04-20 09:48 amSSW 5.1 7.0----30.11- 51.8 55.0----
2024-04-20 09:42 amSSW 6.0 7.0----30.11- 51.8 55.4----
2024-04-20 09:36 amSSW 5.1 7.0----30.11- 52.2 55.2----
2024-04-20 09:30 amSSW 5.1 8.0----30.11- 52.2 55.4----
2024-04-20 09:24 amSSW 5.1 7.0----30.10- 52.2 55.4----
2024-04-20 09:18 amSSW 4.1 7.0----30.10- 52.3 55.2----
2024-04-20 09:12 amSSW 6.0 7.0----30.09- 51.6 55.0----
2024-04-20 09:06 amSSW 4.1 6.0----30.09- 51.8 55.2----
2024-04-20 09:00 amSSW 1.0 2.9----30.09+0.06 51.1 55.2----
2024-04-20 08:54 am S 1.0 2.9----30.08- 50.7 55.2----
2024-04-20 08:48 am SE 1.9 4.1----30.08-- 55.2----
2024-04-20 08:42 amESE 1.9 4.1----30.07- 50.7 55.2----
2024-04-20 08:36 amSSW 1.9 4.1----30.08- 50.0 55.2----
2024-04-20 08:30 amSSE 1.0 1.0----30.07- 50.5 55.2----
2024-04-20 08:24 amSSE 1.0 1.9----30.07- 50.7 55.2----
2024-04-20 08:18 am E 1.0 1.9----30.06- 50.5 55.0----
2024-04-20 08:12 amESE 1.0 1.9----30.06- 50.5 55.2----
2024-04-20 08:06 am E 1.9 2.9----30.06- 50.0 54.9----
2024-04-20 08:00 am E 2.9 2.9----30.06+0.04 49.8 55.0----
2024-04-20 07:54 am E 1.9 2.9----30.06- 50.0 54.7----
2024-04-20 07:48 am E 1.9 2.9----30.06- 49.5 54.5----
2024-04-20 07:42 amSSE 1.0 2.9----30.06- 49.8 54.5----
2024-04-20 07:36 am- 0.0 1.0----30.06- 49.5 54.7----
2024-04-20 07:30 am- 0.0 1.9----30.06- 49.8 54.3----
2024-04-20 07:24 amSSW 1.9 2.9----30.06- 49.5 54.3----
2024-04-20 07:18 am S 2.9 4.1----30.05- 49.5 54.5----
2024-04-20 07:12 am S 2.9 5.1----30.05- 49.5 54.3----
2024-04-20 07:06 amWSW 2.9 4.1----30.05- 49.5 54.5----
2024-04-20 07:00 am- 0.0 2.9----30.05+0.02 48.7 54.9----
2024-04-20 06:54 am- 0.0 1.9----30.05- 47.1 54.9----
2024-04-20 06:48 am E 2.9 4.1----30.05-- 54.9----
2024-04-20 06:42 amENE 2.9 2.9----30.05-- 54.9----
2024-04-20 06:36 am NE 1.9 2.9----30.05-- 54.9----
2024-04-20 06:30 am N 2.9 2.9----30.05- 45.0 54.9----
2024-04-20 06:24 am- 0.0 1.9----30.04- 44.1 54.7----
2024-04-20 06:18 am N 1.9 2.9----30.04- 43.9 54.5----
2024-04-20 06:12 amNNW 1.9 1.9----30.03- 44.2 54.5----
2024-04-20 06:06 am N 1.9 1.9----30.03- 44.2 54.0----
2024-04-20 06:00 am N 1.0 1.9----30.03+0.01 44.6 54.1----
2024-04-20 05:54 am- 0.0 1.9----30.02- 44.2 54.3----
2024-04-20 05:48 amNNE 2.9 4.1----30.02-- 54.3----
2024-04-20 05:42 amNNE 2.9 4.1----30.02- 43.9 54.3----
2024-04-20 05:36 am N 2.9 4.1----30.02- 44.1 54.3----
2024-04-20 05:30 am N 1.9 2.9----30.01- 44.4 54.5----
2024-04-20 05:24 am N 1.9 1.9----30.01- 45.1 54.3----
2024-04-20 05:18 am N 1.0 2.9----30.01- 45.3 54.1----
2024-04-20 05:12 amNNE 1.9 2.9----30.01- 45.1 54.3----
2024-04-20 05:06 am N 1.9 2.9----30.01- 45.5 54.0----
2024-04-20 05:00 amNNE 1.9 1.9----30.02+0.01 45.9 54.1----
2024-04-20 04:54 amENE 1.0 1.9----30.02- 46.6 54.1----
2024-04-20 04:48 am- 0.0 1.9----30.02- 46.4 54.1----
2024-04-20 04:42 am NE 1.9 2.9----30.02- 46.4 54.1----
2024-04-20 04:36 am N 1.0 1.9----30.02- 47.1 53.8----
2024-04-20 04:30 amNNE 1.9 2.9----30.02- 48.6 53.8----
2024-04-20 04:24 amENE 1.9 4.1----30.02- 50.7 54.0----
2024-04-20 04:18 amENE 4.1 5.1----30.02- 50.2 54.0----
2024-04-20 04:12 amENE 2.9 2.9----30.02- 48.7 53.8----
2024-04-20 04:06 amENE 2.9 4.1----30.02- 47.5 53.8----
2024-04-20 04:00 amENE 4.1 4.1----30.03+0.02 49.3 54.0----
2024-04-20 03:54 amENE 2.9 4.1----30.03- 48.9 53.8----